This is the latest recevied weather packets stored in our database for station/object N0HEQ. If no packets are shown the sender has not sent any weather packets the latest 10 day(s).
| Time | Temp. | Humidity | Pressure | Rain* | Wind** | Luminosity | Snow |
|---|---|---|---|---|---|---|---|
| 1777845897 | 23.33° C | 16% | 1014.8 hPa | 0 mm | - | 251 W/m² | - |
| 1777845589 | 23.89° C | 14% | 1014.8 hPa | 0 mm | - | 214 W/m² | - |
| 1777845285 | 23.89° C | 14% | 1014.9 hPa | 0 mm | - | 272 W/m² | - |
| 1777844983 | 23.89° C | 14% | 1014.8 hPa | 0 mm | - | 288 W/m² | - |
| 1777844680 | 24.44° C | 14% | 1015.2 hPa | 0 mm | - | 275 W/m² | - |
| 1777844377 | 23.89° C | 13% | 1015 hPa | 0 mm | - | 297 W/m² | - |
| 1777844076 | 24.44° C | 15% | 1015 hPa | 0 mm | - | 346 W/m² | - |
| 1777843772 | 24.44° C | 15% | 1014.9 hPa | 0 mm | - | 425 W/m² | - |
| 1777843469 | 24.44° C | 14% | 1015 hPa | 0 mm | - | 440 W/m² | - |
| 1777843167 | 23.89° C | 14% | 1015.3 hPa | 0 mm | - | 370 W/m² | - |
| 1777842863 | 23.33° C | 14% | 1015.3 hPa | 0 mm | - | 317 W/m² | - |
| 1777842559 | 23.89° C | 14% | 1015.4 hPa | 0 mm | - | 358 W/m² | - |
| 1777842256 | 24.44° C | 13% | 1015.6 hPa | 0 mm | - | 246 W/m² | - |
| 1777841956 | 24.44° C | 14% | 1015.7 hPa | 0 mm | - | 370 W/m² | - |
| 1777841654 | 25° C | 14% | 1015.5 hPa | 0 mm | - | 472 W/m² | - |
| 1777841350 | 24.44° C | 14% | 1015.7 hPa | 0 mm | - | 703 W/m² | - |
| 1777841047 | 25.56° C | 14% | 1015.9 hPa | 0 mm | - | 374 W/m² | - |
| 1777840744 | 25° C | 13% | 1016 hPa | 0 mm | - | 742 W/m² | - |
| 1777840441 | 23.89° C | 14% | 1015.7 hPa | 0 mm | - | 689 W/m² | - |
| 1777840138 | 25° C | 13% | 1016 hPa | 0 mm | - | 635 W/m² | - |
| 1777839837 | 25.56° C | 14% | 1016.1 hPa | 0 mm | - | 739 W/m² | - |
| 1777839535 | 24.44° C | 13% | 1016.1 hPa | 0 mm | - | 810 W/m² | - |
| 1777839231 | 23.89° C | 16% | 1016.1 hPa | 0 mm | - | 794 W/m² | - |
| 1777838929 | 25.56° C | 14% | 1016.1 hPa | 0 mm | - | 817 W/m² | - |
| 1777838624 | 24.44° C | 13% | 1016.5 hPa | 0 mm | - | 802 W/m² | - |
* Rain latest hour (hover to see other rain measurements)
** Current wind speed in m/s (hover to see current wind gust speed)